Location: ?????
(37.7324°N, 23.9257°E)
Time: 07:26:45
(UTC+00:00)

ATLAS 2AS CENTAUR R/B - Pass Details

Date: 29 November 2020
Orbit: 943 x 1268 km, 63.7° (Epoch: 16 January)

Event Time Altitude Azimuth Distance (km) Brightness Sun altitude
Exits shadow 02:28:03 55° 186° (S) 1,486 3.3 -33.3°
Maximum altitude 02:29:56 76° 119° (ESE) 1,306 3.1 -32.9°
Drops below altitude 10° 02:37:51 10° 35° (NE) 3,243 5.5 -31.4°
Sets 02:40:37 0° 34° (NE) 4,192 6.2 -30.8°
